,,,PA_Meas_PMT16A,,PR_Meas_QMR101_102,,RH_Meas_QMH101,,SR_Meas_QMS101,,TA_Meas_QMH101,,GenWind,,GenWind,
date,time,status,PA,status,PR,status,RH,status,SR,status,TA,status,DirAvg,status,SpdAvg,
2012-05-07, 00:00:04,VALID,1009.79,VALID,0,VALID,104,VALID,0,VALID,23.3628,VALID,36,VALID,0,
2012-05-07, 00:01:04,VALID,1009.79,VALID,0,VALID,104,VALID,0,VALID,23.4017,VALID,36,VALID,0.182422,
2012-05-07, 00:02:04,VALID,1009.77,VALID,0,VALID,104,VALID,0,VALID,23.4212,VALID,36,VALID,0.455469,
2012-05-07, 00:03:04,VALID,1009.74,VALID,0,VALID,104,VALID,0,VALID,23.4602,VALID,36,VALID,0.325781,
2012-05-07, 00:04:04,VALID,1009.72,VALID,0,VALID,104,VALID,0,VALID,23.4797,VALID,36,VALID,0.475781,
2012-05-07, 00:05:04,VALID,1009.69,VALID,0,VALID,104,VALID,0,VALID,23.4992,VALID,36,VALID,0.448047,
2012-05-07, 00:06:04,VALID,1009.65,VALID,0,VALID,104,VALID,0,VALID,23.4974,VALID,36,VALID,0.467969,
2012-05-07, 00:07:04,VALID,1009.64,VALID,0,VALID,104,VALID,0,VALID,23.5381,VALID,36,VALID,0.500391,
2012-05-07, 00:08:04,VALID,1009.63,VALID,0,VALID,104,VALID,0,VALID,23.5381,VALID,36,VALID,0.260938,
2012-05-07, 00:09:04,VALID,1009.6,VALID,0,VALID,104,VALID,0,VALID,23.5576,VALID,36,VALID,0.370313,
2012-05-07, 00:10:04,VALID,1009.59,VALID,0,VALID,104,VALID,0,VALID,23.5771,VALID,36,VALID,0.141797,
2012-05-07, 00:11:04,VALID,1009.57,VALID,0,VALID,104,VALID,0,VALID,23.5771,VALID,36,VALID,0.139453,
2012-05-07, 00:12:04,VALID,1009.55,VALID,0,VALID,104,VALID,0,VALID,23.5966,VALID,36,VALID,0.230078,
2012-05-07, 00:13:04,VALID,1009.57,VALID,0,VALID,104,VALID,0,VALID,23.5966,VALID,36,VALID,0.125,
2012-05-07, 00:14:04,VALID,1009.58,VALID,0,VALID,104,VALID,0,VALID,23.5966,VALID,36,VALID,0.0882813,
2012-05-07, 00:15:04,VALID,1009.52,VALID,0,VALID,104,VALID,0,VALID,23.5753,VALID,36,VALID,0,
2012-05-07, 00:16:04,VALID,1009.53,VALID,0,VALID,104,VALID,0,VALID,23.6161,VALID,36,VALID,0,
2012-05-07, 00:17:04,VALID,1009.52,VALID,0,VALID,104,VALID,0,VALID,23.5966,VALID,36,VALID,0,
2012-05-07, 00:18:04,VALID,1009.49,VALID,0,VALID,104,VALID,0,VALID,23.6161,VALID,36,VALID,0,
2012-05-07, 00:19:04,VALID,1009.48,VALID,0,VALID,104,VALID,0,VALID,23.6161,VALID,36,VALID,0,
2012-05-07, 00:20:04,VALID,1009.44,VALID,0,VALID,104,VALID,0,VALID,23.6161,VALID,36,VALID,0.009375,
2012-05-07, 00:21:04,VALID,1009.41,VALID,0,VALID,104,VALID,0,VALID,23.655,VALID,36,VALID,0.09375,
2012-05-07, 00:22:04,VALID,1009.39,VALID,0,VALID,104,VALID,0.112112,VALID,23.655,VALID,36,VALID,0,
2012-05-07, 00:23:04,VALID,1009.38,VALID,0,VALID,104,VALID,0,VALID,23.6356,VALID,114,VALID,0.722656,
2012-05-07, 00:24:04,VALID,1009.36,VALID,0,VALID,104,VALID,0,VALID,23.655,VALID,115,VALID,0.709375,
2012-05-07, 00:25:04,VALID,1009.34,VALID,0,VALID,104,VALID,0,VALID,23.6745,VALID,115,VALID,0.526172,
2012-05-07, 00:26:04,VALID,1009.36,VALID,0,VALID,104,VALID,0,VALID,23.6532,VALID,113,VALID,0.594922,
2012-05-07, 00:27:04,VALID,1009.35,VALID,0,VALID,104,VALID,0,VALID,23.694,VALID,110,VALID,0.186328,
2012-05-07, 00:28:04,VALID,1009.31,VALID,0,VALID,104,VALID,0.112112,VALID,23.694,VALID,110,VALID,0.0335938,
2012-05-07, 00:29:04,VALID,1009.31,VALID,0,VALID,104,VALID,0,VALID,23.694,VALID,102,VALID,0.143359,
2012-05-07, 00:30:04,VALID,1009.25,VALID,0,VALID,104,VALID,0,VALID,23.694,VALID,102,VALID,0.0804688,
2012-05-07, 00:31:04,VALID,1009.24,VALID,0,VALID,104,VALID,0,VALID,23.6922,VALID,102,VALID,0.040625,
2012-05-07, 00:32:04,VALID,1009.22,VALID,0,VALID,104,VALID,0.112112,VALID,23.6922,VALID,102,VALID,0.21875,
2012-05-07, 00:33:04,VALID,1009.22,VALID,0,VALID,104,VALID,0,VALID,23.7135,VALID,102,VALID,0.00507812,
2012-05-07, 00:34:04,VALID,1009.19,VALID,0,VALID,104,VALID,0,VALID,23.6922,VALID,102,VALID,0.115234,
2012-05-07, 00:35:04,VALID,1009.21,VALID,0,VALID,104,VALID,0,VALID,23.733,VALID,102,VALID,0.00390625,
2012-05-07, 00:36:04,VALID,1009.2,VALID,0,VALID,104,VALID,0,VALID,23.7117,VALID,102,VALID,0,
2012-05-07, 00:37:04,VALID,1009.2,VALID,0,VALID,104,VALID,0,VALID,23.7135,VALID,102,VALID,0.0921875,
2012-05-07, 00:38:04,VALID,1009.2,VALID,0,VALID,104,VALID,0,VALID,23.7135,VALID,102,VALID,0.132031,
2012-05-07, 00:39:04,VALID,1009.17,VALID,0,VALID,104,VALID,0,VALID,23.733,VALID,102,VALID,0.273438,
2012-05-07, 00:40:04,VALID,1009.18,VALID,0,VALID,104,VALID,0,VALID,23.733,VALID,102,VALID,0.300781,
2012-05-07, 00:41:04,VALID,1009.19,VALID,0,VALID,104,VALID,0,VALID,23.733,VALID,102,VALID,0.35625,
2012-05-07, 00:42:04,VALID,1009.15,VALID,0,VALID,104,VALID,0,VALID,23.733,VALID,102,VALID,0.00195313,
2012-05-07, 00:43:04,VALID,1009.17,VALID,0,VALID,104,VALID,0,VALID,23.7135,VALID,102,VALID,0,
2012-05-07, 00:44:04,VALID,1009.12,VALID,0,VALID,104,VALID,0,VALID,23.694,VALID,102,VALID,0,
2012-05-07, 00:45:04,VALID,1009.13,VALID,0,VALID,104,VALID,0,VALID,23.6745,VALID,102,VALID,0,
2012-05-07, 00:46:04,VALID,1009.1,VALID,0,VALID,104,VALID,0,VALID,23.655,VALID,102,VALID,0,
2012-05-07, 00:47:04,VALID,1009.11,VALID,0,VALID,104,VALID,0,VALID,23.6161,VALID,102,VALID,0,
2012-05-07, 00:48:04,VALID,1009.1,VALID,0,VALID,104,VALID,0,VALID,23.6161,VALID,102,VALID,0,
2012-05-07, 00:49:04,VALID,1009.12,VALID,0,VALID,104,VALID,0,VALID,23.6161,VALID,102,VALID,0,
2012-05-07, 00:50:04,VALID,1009.13,VALID,0,VALID,104,VALID,0,VALID,23.5966,VALID,102,VALID,0,
2012-05-07, 00:51:04,VALID,1009.14,VALID,0,VALID,104,VALID,0,VALID,23.5984,VALID,102,VALID,0,
2012-05-07, 00:52:04,VALID,1009.13,VALID,0,VALID,104,VALID,0,VALID,23.5771,VALID,102,VALID,0,
2012-05-07, 00:53:04,VALID,1009.13,VALID,0,VALID,104,VALID,0,VALID,23.5771,VALID,102,VALID,0,
2012-05-07, 00:54:04,VALID,1009.12,VALID,0,VALID,104,VALID,0,VALID,23.5771,VALID,102,VALID,0,
2012-05-07, 00:55:04,VALID,1009.11,VALID,0,VALID,104,VALID,0,VALID,23.5363,VALID,102,VALID,0,
2012-05-07, 00:56:04,VALID,1009.11,VALID,0,VALID,104,VALID,0,VALID,23.5381,VALID,102,VALID,0.11875,
2012-05-07, 00:57:04,VALID,1009.11,VALID,0,VALID,104,VALID,0,VALID,23.5381,VALID,102,VALID,0.0328125,
2012-05-07, 00:58:04,VALID,1009.13,VALID,0,VALID,104,VALID,0,VALID,23.5381,VALID,102,VALID,0,
2012-05-07, 00:59:04,VALID,1009.11,VALID,0,VALID,104,VALID,0,VALID,23.5381,VALID,102,VALID,0.130469,
2012-05-07, 01:00:04,VALID,1009.11,VALID,0,VALID,104,VALID,0,VALID,23.5186,VALID,102,VALID,0.188281,
2012-05-07, 01:01:04,VALID,1009.09,VALID,0,VALID,104,VALID,0,VALID,23.4992,VALID,102,VALID,0.151172,
2012-05-07, 01:02:04,VALID,1009.03,VALID,0,VALID,104,VALID,0,VALID,23.4992,VALID,102,VALID,0.0984375,
2012-05-07, 01:03:04,VALID,1009.05,VALID,0,VALID,104,VALID,0,VALID,23.4602,VALID,102,VALID,0.166406,
2012-05-07, 01:04:04,VALID,1009.03,VALID,0,VALID,104,VALID,0,VALID,23.4815,VALID,102,VALID,0.210547,
2012-05-07, 01:05:04,VALID,1009.04,VALID,0,VALID,104,VALID,0,VALID,23.4815,VALID,102,VALID,0.259375,
2012-05-07, 01:06:04,VALID,1009.04,VALID,0,VALID,104,VALID,0,VALID,23.4602,VALID,102,VALID,0.106641,
2012-05-07, 01:07:04,VALID,1009.04,VALID,0,VALID,104,VALID,0,VALID,23.4602,VALID,102,VALID,0,
2012-05-07, 01:08:04,VALID,1009.03,VALID,0,VALID,104,VALID,0,VALID,23.4407,VALID,102,VALID,0,
2012-05-07, 01:09:04,VALID,1009.05,VALID,0,VALID,104,VALID,0,VALID,23.4407,VALID,102,VALID,0,
2012-05-07, 01:10:04,VALID,1009.07,VALID,0,VALID,104,VALID,0,VALID,23.4407,VALID,102,VALID,0,
2012-05-07, 01:11:04,VALID,1009.1,VALID,0,VALID,104,VALID,0,VALID,23.4425,VALID,102,VALID,0,
2012-05-07, 01:12:04,VALID,1009.08,VALID,0,VALID,104,VALID,0,VALID,23.4212,VALID,102,VALID,0,
2012-05-07, 01:13:04,VALID,1009.11,VALID,0,VALID,104,VALID,0,VALID,23.4212,VALID,102,VALID,0,
2012-05-07, 01:14:04,VALID,1009.12,VALID,0,VALID,104,VALID,0,VALID,23.423,VALID,102,VALID,0,
2012-05-07, 01:15:04,VALID,1009.14,VALID,0,VALID,104,VALID,0,VALID,23.3805,VALID,102,VALID,0,
2012-05-07, 01:16:04,VALID,1009.11,VALID,0,VALID,104,VALID,0,VALID,23.3628,VALID,102,VALID,0,
2012-05-07, 01:17:04,VALID,1009.13,VALID,0,VALID,104,VALID,0,VALID,23.3823,VALID,102,VALID,0,
2012-05-07, 01:18:04,VALID,1009.18,VALID,0,VALID,104,VALID,0,VALID,23.3823,VALID,102,VALID,0,
2012-05-07, 01:19:04,VALID,1009.19,VALID,0,VALID,104,VALID,0,VALID,23.3628,VALID,102,VALID,0,
2012-05-07, 01:20:04,VALID,1009.21,VALID,0,VALID,104,VALID,0,VALID,23.3433,VALID,102,VALID,0,
2012-05-07, 01:21:04,VALID,1009.21,VALID,0,VALID,104,VALID,0,VALID,23.3433,VALID,102,VALID,0,
2012-05-07, 01:22:04,VALID,1009.21,VALID,0,VALID,104,VALID,0,VALID,23.3433,VALID,102,VALID,0,
2012-05-07, 01:23:04,VALID,1009.23,VALID,0,VALID,104,VALID,0,VALID,23.3433,VALID,102,VALID,0,
2012-05-07, 01:24:04,VALID,1009.2,VALID,0,VALID,104,VALID,0,VALID,23.3433,VALID,102,VALID,0,
2012-05-07, 01:25:04,VALID,1009.2,VALID,0,VALID,104,VALID,0,VALID,23.3433,VALID,102,VALID,0,
2012-05-07, 01:26:04,VALID,1009.17,VALID,0,VALID,104,VALID,0,VALID,23.3433,VALID,102,VALID,0,
2012-05-07, 01:27:04,VALID,1009.15,VALID,0,VALID,104,VALID,0,VALID,23.3433,VALID,102,VALID,0,
2012-05-07, 01:28:04,VALID,1009.15,VALID,0,VALID,104,VALID,0,VALID,23.322,VALID,102,VALID,0,
2012-05-07, 01:29:04,VALID,1009.14,VALID,0,VALID,104,VALID,0,VALID,23.4017,VALID,102,VALID,0,
2012-05-07, 01:30:04,VALID,1009.14,VALID,0,VALID,104,VALID,0,VALID,23.4212,VALID,102,VALID,0,
2012-05-07, 01:31:04,VALID,1009.13,VALID,0,VALID,104,VALID,0,VALID,23.4407,VALID,102,VALID,0,
2012-05-07, 01:32:04,VALID,1009.11,VALID,0,VALID,104,VALID,0,VALID,23.4602,VALID,102,VALID,0,
2012-05-07, 01:33:04,VALID,1009.15,VALID,0,VALID,104,VALID,0,VALID,23.4797,VALID,102,VALID,0,
2012-05-07, 01:34:04,VALID,1009.11,VALID,0,VALID,104,VALID,0,VALID,23.4992,VALID,102,VALID,0,
2012-05-07, 01:35:04,VALID,1009.08,VALID,0,VALID,104,VALID,0,VALID,23.5186,VALID,102,VALID,0,
2012-05-07, 01:36:04,VALID,1009.09,VALID,0,VALID,104,VALID,0,VALID,23.5594,VALID,102,VALID,0,
2012-05-07, 01:37:04,VALID,1009.04,VALID,0,VALID,104,VALID,0,VALID,23.5363,VALID,102,VALID,0,
2012-05-07, 01:38:04,VALID,1009.07,VALID,0,VALID,104,VALID,0,VALID,23.5576,VALID,102,VALID,0,
2012-05-07, 01:39:04,VALID,1009.06,VALID,0,VALID,104,VALID,0,VALID,23.5576,VALID,102,VALID,0,
2012-05-07, 01:40:04,VALID,1009.06,VALID,0,VALID,104,VALID,0,VALID,23.5789,VALID,102,VALID,0,
2012-05-07, 01:41:04,VALID,1009.05,VALID,0,VALID,104,VALID,0,VALID,23.5576,VALID,102,VALID,0,
2012-05-07, 01:42:04,VALID,1009.04,VALID,0,VALID,104,VALID,0,VALID,23.5576,VALID,102,VALID,0,
2012-05-07, 01:43:04,VALID,1009.03,VALID,0,VALID,104,VALID,0,VALID,23.5576,VALID,102,VALID,0,
2012-05-07, 01:44:04,VALID,1009.04,VALID,0,VALID,104,VALID,0,VALID,23.5576,VALID,102,VALID,0,
2012-05-07, 01:45:04,VALID,1009.08,VALID,0,VALID,104,VALID,0,VALID,23.5363,VALID,102,VALID,0,
2012-05-07, 01:46:04,VALID,1009.06,VALID,0,VALID,104,VALID,0,VALID,23.5576,VALID,102,VALID,0,
2012-05-07, 01:47:04,VALID,1009.08,VALID,0,VALID,104,VALID,0,VALID,23.5576,VALID,102,VALID,0,
2012-05-07, 01:48:04,VALID,1009.08,VALID,0,VALID,104,VALID,0.112112,VALID,23.5576,VALID,102,VALID,0,
2012-05-07, 01:49:04,VALID,1009.09,VALID,0,VALID,104,VALID,0,VALID,23.5576,VALID,102,VALID,0,
2012-05-07, 01:50:04,VALID,1009.1,VALID,0,VALID,104,VALID,0.112112,VALID,23.5576,VALID,102,VALID,0,
2012-05-07, 01:51:04,VALID,1009.09,VALID,0,VALID,104,VALID,0,VALID,23.5576,VALID,102,VALID,0,
2012-05-07, 01:52:04,VALID,1009.08,VALID,0,VALID,104,VALID,0,VALID,23.5771,VALID,102,VALID,0,
2012-05-07, 01:53:04,VALID,1009.08,VALID,0,VALID,104,VALID,0,VALID,23.5771,VALID,102,VALID,0,
2012-05-07, 01:54:04,VALID,1009.1,VALID,0,VALID,104,VALID,0,VALID,23.5558,VALID,102,VALID,0,
2012-05-07, 01:55:04,VALID,1009.1,VALID,0,VALID,104,VALID,0,VALID,23.5771,VALID,102,VALID,0,
2012-05-07, 01:56:04,VALID,1009.11,VALID,0,VALID,104,VALID,0,VALID,23.5576,VALID,102,VALID,0,
2012-05-07, 01:57:04,VALID,1009.09,VALID,0,VALID,104,VALID,0,VALID,23.5381,VALID,102,VALID,0,
2012-05-07, 01:58:04,VALID,1009.1,VALID,0,VALID,104,VALID,0,VALID,23.5576,VALID,102,VALID,0,
2012-05-07, 01:59:04,VALID,1009.09,VALID,0,VALID,104,VALID,0,VALID,23.5381,VALID,102,VALID,0,
2012-05-07, 02:00:04,VALID,1009.11,VALID,0,VALID,104,VALID,0,VALID,23.5381,VALID,102,VALID,0,
2012-05-07, 02:01:04,VALID,1009.11,VALID,0,VALID,104,VALID,0,VALID,23.5381,VALID,102,VALID,0,
2012-05-07, 02:02:04,VALID,1009.1,VALID,0,VALID,104,VALID,0,VALID,23.5381,VALID,102,VALID,0,
2012-05-07, 02:03:04,VALID,1009.14,VALID,0,VALID,104,VALID,0,VALID,23.5381,VALID,102,VALID,0,
2012-05-07, 02:04:04,VALID,1009.1,VALID,0,VALID,104,VALID,0,VALID,23.5789,VALID,102,VALID,0,
2012-05-07, 02:05:04,VALID,1009.13,VALID,0,VALID,104,VALID,0,VALID,23.5576,VALID,102,VALID,0,
2012-05-07, 02:06:04,VALID,1009.13,VALID,0,VALID,104,VALID,0.112112,VALID,23.5558,VALID,102,VALID,0,
2012-05-07, 02:07:04,VALID,1009.13,VALID,0,VALID,104,VALID,0,VALID,23.5576,VALID,102,VALID,0,
2012-05-07, 02:08:04,VALID,1009.14,VALID,0,VALID,104,VALID,0,VALID,23.5984,VALID,102,VALID,0,
2012-05-07, 02:09:04,VALID,1009.16,VALID,0,VALID,104,VALID,0,VALID,23.5576,VALID,102,VALID,0,
2012-05-07, 02:10:04,VALID,1009.17,VALID,0,VALID,104,VALID,0,VALID,23.5771,VALID,102,VALID,0,
2012-05-07, 02:11:04,VALID,1009.17,VALID,0,VALID,104,VALID,0,VALID,23.5771,VALID,102,VALID,0,
2012-05-07, 02:12:04,VALID,1009.17,VALID,0,VALID,104,VALID,0,VALID,23.5576,VALID,102,VALID,0,
2012-05-07, 02:13:04,VALID,1009.16,VALID,0,VALID,104,VALID,0,VALID,23.5381,VALID,102,VALID,0,
2012-05-07, 02:14:04,VALID,1009.18,VALID,0,VALID,104,VALID,0,VALID,23.5186,VALID,102,VALID,0,
2012-05-07, 02:15:04,VALID,1009.16,VALID,0,VALID,104,VALID,0.112112,VALID,23.5186,VALID,102,VALID,0,
2012-05-07, 02:16:04,VALID,1009.13,VALID,0,VALID,104,VALID,0,VALID,23.5399,VALID,68,VALID,0.586328,
2012-05-07, 02:17:04,VALID,1009.15,VALID,0,VALID,104,VALID,0,VALID,23.5186,VALID,50,VALID,0.681641,
2012-05-07, 02:18:04,VALID,1009.15,VALID,0,VALID,104,VALID,0,VALID,23.4992,VALID,50,VALID,0.486328,
2012-05-07, 02:19:04,VALID,1009.15,VALID,0,VALID,104,VALID,0,VALID,23.4797,VALID,50,VALID,0.497266,
2012-05-07, 02:20:04,VALID,1009.16,VALID,0,VALID,104,VALID,0,VALID,23.4797,VALID,50,VALID,0.548828,
2012-05-07, 02:21:04,VALID,1009.17,VALID,0,VALID,104,VALID,0,VALID,23.5009,VALID,50,VALID,0.533984,
2012-05-07, 02:22:04,VALID,1009.19,VALID,0,VALID,104,VALID,0,VALID,23.4797,VALID,50,VALID,0.410937,
2012-05-07, 02:23:04,VALID,1009.17,VALID,0,VALID,104,VALID,0,VALID,23.5009,VALID,50,VALID,0.473047,
2012-05-07, 02:24:04,VALID,1009.15,VALID,0,VALID,104,VALID,0,VALID,23.4797,VALID,50,VALID,0.588672,
2012-05-07, 02:25:04,VALID,1009.13,VALID,0,VALID,104,VALID,0,VALID,23.4797,VALID,50,VALID,0.480469,
2012-05-07, 02:26:04,VALID,1009.1,VALID,0,VALID,104,VALID,0,VALID,23.4797,VALID,50,VALID,0.342578,
2012-05-07, 02:27:04,VALID,1009.08,VALID,0,VALID,104,VALID,0,VALID,23.4797,VALID,50,VALID,0.279297,
2012-05-07, 02:28:04,VALID,1009.05,VALID,0,VALID,104,VALID,0,VALID,23.4797,VALID,50,VALID,0.251172,
2012-05-07, 02:29:04,VALID,1009.04,VALID,0,VALID,104,VALID,0,VALID,23.4797,VALID,50,VALID,0.191406,
2012-05-07, 02:30:04,VALID,1009,VALID,0,VALID,104,VALID,0.112112,VALID,23.4797,VALID,50,VALID,0.0492188,
2012-05-07, 02:31:04,VALID,1008.95,VALID,0,VALID,104,VALID,0,VALID,23.4797,VALID,50,VALID,0,
2012-05-07, 02:32:04,VALID,1008.9,VALID,0,VALID,104,VALID,0,VALID,23.4797,VALID,50,VALID,0,
2012-05-07, 02:33:04,VALID,1008.91,VALID,0,VALID,104,VALID,0,VALID,23.4602,VALID,50,VALID,0,
2012-05-07, 02:34:04,VALID,1008.89,VALID,0,VALID,104,VALID,0,VALID,23.4797,VALID,50,VALID,0,
2012-05-07, 02:35:04,VALID,1008.91,VALID,0,VALID,104,VALID,0,VALID,23.4797,VALID,50,VALID,0,
2012-05-07, 02:36:04,VALID,1008.9,VALID,0,VALID,104,VALID,0,VALID,23.4602,VALID,50,VALID,0,
2012-05-07, 02:37:04,VALID,1008.88,VALID,0,VALID,104,VALID,0,VALID,23.4584,VALID,50,VALID,0,
2012-05-07, 02:38:04,VALID,1008.91,VALID,0,VALID,104,VALID,0,VALID,23.4797,VALID,50,VALID,0,
2012-05-07, 02:39:04,VALID,1008.91,VALID,0,VALID,104,VALID,0,VALID,23.4584,VALID,50,VALID,0,
2012-05-07, 02:40:04,VALID,1008.89,VALID,0,VALID,104,VALID,0,VALID,23.4779,VALID,50,VALID,0,
2012-05-07, 02:41:04,VALID,1008.88,VALID,0,VALID,104,VALID,0,VALID,23.4992,VALID,50,VALID,0,
2012-05-07, 02:42:04,VALID,1008.86,VALID,0,VALID,104,VALID,0,VALID,23.4779,VALID,50,VALID,0,
2012-05-07, 02:43:04,VALID,1008.87,VALID,0,VALID,104,VALID,0,VALID,23.4779,VALID,50,VALID,0,
2012-05-07, 02:44:04,VALID,1008.87,VALID,0,VALID,104,VALID,0,VALID,23.4584,VALID,50,VALID,0,
2012-05-07, 02:45:04,VALID,1008.89,VALID,0,VALID,104,VALID,0.112112,VALID,23.4584,VALID,50,VALID,0,
2012-05-07, 02:46:04,VALID,1008.86,VALID,0,VALID,104,VALID,0,VALID,23.4797,VALID,50,VALID,0.0988281,
2012-05-07, 02:47:04,VALID,1008.87,VALID,0,VALID,104,VALID,0,VALID,23.4389,VALID,50,VALID,0.287109,
2012-05-07, 02:48:04,VALID,1008.87,VALID,0,VALID,104,VALID,0,VALID,23.4602,VALID,50,VALID,0.371484,
2012-05-07, 02:49:04,VALID,1008.85,VALID,0,VALID,104,VALID,0,VALID,23.4602,VALID,50,VALID,0.417188,
2012-05-07, 02:50:04,VALID,1008.82,VALID,0,VALID,104,VALID,0,VALID,23.4389,VALID,50,VALID,0.328906,
2012-05-07, 02:51:04,VALID,1008.79,VALID,0,VALID,104,VALID,0,VALID,23.4602,VALID,50,VALID,0.308594,
2012-05-07, 02:52:04,VALID,1008.77,VALID,0,VALID,104,VALID,0,VALID,23.4602,VALID,50,VALID,0.239063,
2012-05-07, 02:53:04,VALID,1008.75,VALID,0,VALID,104,VALID,0,VALID,23.4797,VALID,50,VALID,0.321094,
2012-05-07, 02:54:04,VALID,1008.78,VALID,0,VALID,104,VALID,0,VALID,23.4797,VALID,50,VALID,0.228906,
2012-05-07, 02:55:04,VALID,1008.78,VALID,0,VALID,104,VALID,0,VALID,23.4602,VALID,50,VALID,0.276172,
2012-05-07, 02:56:04,VALID,1008.76,VALID,0,VALID,104,VALID,0.112112,VALID,23.4602,VALID,50,VALID,0.452734,
2012-05-07, 02:57:04,VALID,1008.77,VALID,0,VALID,104,VALID,0,VALID,23.4584,VALID,46,VALID,0.442187,
2012-05-07, 02:58:04,VALID,1008.76,VALID,0,VALID,104,VALID,0,VALID,23.4779,VALID,46,VALID,0.292188,
2012-05-07, 02:59:04,VALID,1008.78,VALID,0,VALID,104,VALID,0.112112,VALID,23.4992,VALID,46,VALID,0.451172,
2012-05-07, 03:00:04,VALID,1008.75,VALID,0,VALID,104,VALID,0,VALID,23.4779,VALID,46,VALID,0.436328,
2012-05-07, 03:01:04,VALID,1008.74,VALID,0,VALID,104,VALID,0.112112,VALID,23.4992,VALID,46,VALID,0.625391,
2012-05-07, 03:02:04,VALID,1008.73,VALID,0,VALID,104,VALID,0,VALID,23.4992,VALID,46,VALID,0.474219,
2012-05-07, 03:03:04,VALID,1008.7,VALID,0,VALID,104,VALID,0.112112,VALID,23.4992,VALID,46,VALID,0.401563,
2012-05-07, 03:04:04,VALID,1008.69,VALID,0,VALID,104,VALID,0,VALID,23.5186,VALID,46,VALID,0.410547,
2012-05-07, 03:05:04,VALID,1008.73,VALID,0,VALID,104,VALID,0,VALID,23.5186,VALID,46,VALID,0.158984,
2012-05-07, 03:06:04,VALID,1008.73,VALID,0,VALID,104,VALID,0,VALID,23.5186,VALID,46,VALID,0,
2012-05-07, 03:07:04,VALID,1008.74,VALID,0,VALID,104,VALID,0,VALID,23.4992,VALID,46,VALID,0,
2012-05-07, 03:08:04,VALID,1008.75,VALID,0,VALID,104,VALID,0,VALID,23.5186,VALID,46,VALID,0,
2012-05-07, 03:09:04,VALID,1008.76,VALID,0,VALID,104,VALID,0,VALID,23.5186,VALID,46,VALID,0,
2012-05-07, 03:10:04,VALID,1008.75,VALID,0,VALID,104,VALID,0,VALID,23.4974,VALID,46,VALID,0,
2012-05-07, 03:11:04,VALID,1008.77,VALID,0,VALID,104,VALID,0,VALID,23.4974,VALID,46,VALID,0,
2012-05-07, 03:12:04,VALID,1008.75,VALID,0,VALID,104,VALID,0.112112,VALID,23.5381,VALID,46,VALID,0,
2012-05-07, 03:13:04,VALID,1008.73,VALID,0,VALID,104,VALID,0,VALID,23.4974,VALID,46,VALID,0,
2012-05-07, 03:14:04,VALID,1008.71,VALID,0,VALID,104,VALID,0,VALID,23.5186,VALID,46,VALID,0,
2012-05-07, 03:15:04,VALID,1008.68,VALID,0,VALID,104,VALID,0,VALID,23.4974,VALID,46,VALID,0,
2012-05-07, 03:16:04,VALID,1008.7,VALID,0,VALID,104,VALID,0,VALID,23.4779,VALID,46,VALID,0.333984,
2012-05-07, 03:17:04,VALID,1008.64,VALID,0,VALID,104,VALID,0,VALID,23.4797,VALID,46,VALID,0.330078,
2012-05-07, 03:18:04,VALID,1008.65,VALID,0,VALID,104,VALID,0,VALID,23.4797,VALID,46,VALID,0.230859,
2012-05-07, 03:19:04,VALID,1008.66,VALID,0,VALID,104,VALID,0.112112,VALID,23.4797,VALID,46,VALID,0.336719,
2012-05-07, 03:20:04,VALID,1008.64,VALID,0,VALID,104,VALID,0,VALID,23.4992,VALID,46,VALID,0.214453,
2012-05-07, 03:21:04,VALID,1008.63,VALID,0,VALID,104,VALID,0.112112,VALID,23.4974,VALID,46,VALID,0.00898437,
2012-05-07, 03:22:04,VALID,1008.64,VALID,0,VALID,104,VALID,0,VALID,23.4779,VALID,46,VALID,0.192578,
2012-05-07, 03:23:04,VALID,1008.63,VALID,0,VALID,104,VALID,0.112112,VALID,23.4779,VALID,46,VALID,0,
2012-05-07, 03:24:04,VALID,1008.65,VALID,0,VALID,104,VALID,0,VALID,23.4779,VALID,46,VALID,0,
2012-05-07, 03:25:04,VALID,1008.62,VALID,0,VALID,104,VALID,0,VALID,23.4584,VALID,46,VALID,0,
2012-05-07, 03:26:04,VALID,1008.65,VALID,0,VALID,104,VALID,0,VALID,23.4797,VALID,46,VALID,0,
2012-05-07, 03:27:04,VALID,1008.66,VALID,0,VALID,104,VALID,0.112112,VALID,23.4797,VALID,46,VALID,0,
2012-05-07, 03:28:04,VALID,1008.7,VALID,0,VALID,104,VALID,0,VALID,23.4797,VALID,46,VALID,0,
2012-05-07, 03:29:04,VALID,1008.69,VALID,0,VALID,104,VALID,0,VALID,23.4584,VALID,46,VALID,0,
2012-05-07, 03:30:04,VALID,1008.67,VALID,0,VALID,104,VALID,0,VALID,23.4602,VALID,46,VALID,0,
2012-05-07, 03:31:04,VALID,1008.7,VALID,0,VALID,104,VALID,0.112112,VALID,23.4407,VALID,46,VALID,0,
2012-05-07, 03:32:04,VALID,1008.68,VALID,0,VALID,104,VALID,0,VALID,23.4407,VALID,46,VALID,0,
2012-05-07, 03:33:04,VALID,1008.66,VALID,0,VALID,104,VALID,0,VALID,23.4212,VALID,46,VALID,0,
2012-05-07, 03:34:04,VALID,1008.67,VALID,0,VALID,104,VALID,0.112112,VALID,23.4212,VALID,46,VALID,0,
2012-05-07, 03:35:04,VALID,1008.68,VALID,0,VALID,104,VALID,0.112112,VALID,23.4,VALID,46,VALID,0,
2012-05-07, 03:36:04,VALID,1008.68,VALID,0,VALID,104,VALID,0.112112,VALID,23.4017,VALID,46,VALID,0,
2012-05-07, 03:37:04,VALID,1008.67,VALID,0,VALID,104,VALID,0,VALID,23.3805,VALID,46,VALID,0,
2012-05-07, 03:38:04,VALID,1008.66,VALID,0,VALID,104,VALID,0,VALID,23.4017,VALID,46,VALID,0,
2012-05-07, 03:39:04,VALID,1008.65,VALID,0,VALID,104,VALID,0,VALID,23.4212,VALID,46,VALID,0,
2012-05-07, 03:40:04,VALID,1008.63,VALID,0,VALID,104,VALID,0,VALID,23.4212,VALID,46,VALID,0,
2012-05-07, 03:41:04,VALID,1008.64,VALID,0,VALID,104,VALID,0,VALID,23.4212,VALID,46,VALID,0,
2012-05-07, 03:42:04,VALID,1008.63,VALID,0,VALID,104,VALID,0,VALID,23.4212,VALID,46,VALID,0,
2012-05-07, 03:43:04,VALID,1008.63,VALID,0,VALID,104,VALID,0,VALID,23.4407,VALID,46,VALID,0,
2012-05-07, 03:44:04,VALID,1008.61,VALID,0,VALID,104,VALID,0,VALID,23.4194,VALID,46,VALID,0,
2012-05-07, 03:45:04,VALID,1008.64,VALID,0,VALID,104,VALID,0,VALID,23.4407,VALID,46,VALID,0,
2012-05-07, 03:46:04,VALID,1008.59,VALID,0,VALID,104,VALID,0,VALID,23.4407,VALID,46,VALID,0,
2012-05-07, 03:47:04,VALID,1008.63,VALID,0,VALID,104,VALID,0.112112,VALID,23.4602,VALID,46,VALID,0,
2012-05-07, 03:48:04,VALID,1008.61,VALID,0,VALID,104,VALID,0,VALID,23.4407,VALID,46,VALID,0,
2012-05-07, 03:49:04,VALID,1008.63,VALID,0,VALID,104,VALID,0,VALID,23.4194,VALID,46,VALID,0,
2012-05-07, 03:50:04,VALID,1008.66,VALID,0,VALID,104,VALID,0,VALID,23.4407,VALID,46,VALID,0,
2012-05-07, 03:51:04,VALID,1008.68,VALID,0,VALID,104,VALID,0,VALID,23.4194,VALID,46,VALID,0,
2012-05-07, 03:52:04,VALID,1008.69,VALID,0,VALID,104,VALID,0,VALID,23.4407,VALID,46,VALID,0,
2012-05-07, 03:53:04,VALID,1008.69,VALID,0,VALID,104,VALID,0,VALID,23.4194,VALID,46,VALID,0,
2012-05-07, 03:54:04,VALID,1008.7,VALID,0,VALID,104,VALID,0,VALID,23.4407,VALID,46,VALID,0,
2012-05-07, 03:55:04,VALID,1008.7,VALID,0,VALID,104,VALID,0.112112,VALID,23.4,VALID,46,VALID,0,
2012-05-07, 03:56:04,VALID,1008.71,VALID,0,VALID,104,VALID,0,VALID,23.4,VALID,46,VALID,0.172266,
2012-05-07, 03:57:04,VALID,1008.73,VALID,0,VALID,104,VALID,0.112112,VALID,23.4212,VALID,46,VALID,0.273438,
2012-05-07, 03:58:04,VALID,1008.69,VALID,0,VALID,104,VALID,0.112112,VALID,23.4017,VALID,46,VALID,0.187109,
2012-05-07, 03:59:04,VALID,1008.69,VALID,0,VALID,104,VALID,0.112112,VALID,23.4017,VALID,46,VALID,0.0589844,
2012-05-07, 04:00:04,VALID,1008.68,VALID,0,VALID,104,VALID,0.112112,VALID,23.3805,VALID,46,VALID,0.0851562,
2012-05-07, 04:01:04,VALID,1008.72,VALID,0,VALID,104,VALID,0,VALID,23.3823,VALID,46,VALID,0.242188,
2012-05-07, 04:02:04,VALID,1008.7,VALID,0,VALID,104,VALID,0,VALID,23.3823,VALID,46,VALID,0.273047,